Weather History for Idabel, OK

Change the Weather History Date:

Monday, May 27, 2013

  Actual Average (KDEQ) Record (KDEQ)
Temperature  
Mean Temperature 76 °F 73 °F  
Max Temperature 84 °F 84 °F 93 °F (2012)
Min Temperature 68 °F 62 °F 0 °F (2004)
Degree Days  
Heating Degree Days 0 0  
Month to date heating degree days 21  
Since 1 July heating degree days 3042  
Cooling Degree Days 11 8  
Month to date cooling degree days 137  
Year to date cooling degree days 184  
Growing Degree Days 26 (Base 50)    
Moisture  
Dew Point 66 °F    
Average Humidity 73    
Maximum Humidity 94    
Minimum Humidity 51    
Precipitation  
Precipitation 0.00 in 0.14 in 3.14 in (1976)
Month to date precipitation 5.02  
Year to date precipitation 20.59  
Snow  
Snow 0.00 in - - ()
Month to date snowfall  
Since 1 July snowfall  
Snow Depth -    
Sea Level Pressure  
Sea Level Pressure 29.96 in    
Wind  
Wind Speed 9 mph (SSE)    
Max Wind Speed 17 mph    
Max Gust Speed 21 mph    
Visibility 10 miles    
Events      
T = Trace of Precipitation, MM = Missing Value Source: NWS Daily Summary

Daily Weather History Graph

Daily Weather History Graph

Search for Another Location

Airport:

Trip Planner

Search our weather history database for the weather conditions in past years. The results will help you decide how hot, cold, wet, or windy it might be!

Date:

Astronomy

May. 27, 2013 Rise Set
Actual Time 6:11 AM CDT 8:22 PM CDT
Civil Twilight 5:42 AM CDT 8:50 PM CDT
Nautical Twilight 5:08 AM CDT 9:25 PM CDT
Astronomical Twilight 4:30 AM CDT 10:03 PM CDT
Moon 11:05 PM CDT (5/27) 8:47 AM CDT (5/27)
Length of Visible Light 15h 08m
Length of Day
14h 11m
Waning Gibbous, 91% of the Moon is Illuminated
May 27
Waning Gibbous
May 31
Last Quarter
Jun 8
New
Jun 16
First Quarter
Jun 23
Full

Hourly Weather History & Observations

Time (CDT) Temp. Heat Index Dew Point Humidity Pressure Visibility Wind Dir Wind Speed Gust Speed Precip Events Conditions
12:15 AM 71.6 °F - 68.0 °F 88% 30.04 in 10.0 mi SE 5.8 mph - N/A   Scattered Clouds
12:35 AM 71.6 °F - 68.0 °F 88% 30.03 in 10.0 mi SE 8.1 mph - N/A   Scattered Clouds
12:55 AM 71.6 °F - 68.0 °F 88% 30.03 in 10.0 mi SE 6.9 mph - N/A   Scattered Clouds
1:15 AM 71.6 °F - 68.0 °F 88% 30.02 in 10.0 mi SSE 6.9 mph - N/A   Scattered Clouds
1:35 AM 71.6 °F - 68.0 °F 88% 30.02 in 10.0 mi SSE 9.2 mph - N/A   Scattered Clouds
1:55 AM 71.6 °F - 68.0 °F 88% 30.02 in 10.0 mi SSE 8.1 mph - N/A   Clear
2:15 AM 71.6 °F - 68.0 °F 88% 30.01 in 10.0 mi SSE 8.1 mph - N/A   Clear
2:35 AM 71.6 °F - 68.0 °F 88% 30.00 in 10.0 mi South 8.1 mph - N/A   Clear
2:55 AM 71.6 °F - 68.0 °F 88% 29.99 in 10.0 mi South 8.1 mph - N/A   Clear
3:15 AM 71.6 °F - 68.0 °F 88% 29.98 in 10.0 mi South 9.2 mph - N/A   Clear
3:35 AM 71.6 °F - 68.0 °F 88% 29.98 in 10.0 mi South 9.2 mph - N/A   Clear
3:55 AM 71.6 °F - 68.0 °F 88% 29.98 in 10.0 mi SSE 6.9 mph - N/A   Clear
4:15 AM 69.8 °F - 68.0 °F 94% 29.99 in 10.0 mi SSE 5.8 mph - N/A   Clear
4:35 AM 69.8 °F - 66.2 °F 88% 29.99 in 10.0 mi SSE 5.8 mph - N/A   Clear
4:55 AM 69.8 °F - 66.2 °F 88% 29.99 in 7.0 mi SE 5.8 mph - N/A   Clear
5:15 AM 69.8 °F - 66.2 °F 88% 29.99 in 7.0 mi SSE 4.6 mph - N/A   Clear
5:35 AM 69.8 °F - 66.2 °F 88% 29.99 in 7.0 mi SSE 5.8 mph - N/A   Clear
5:55 AM 69.8 °F - 66.2 °F 88% 29.99 in 7.0 mi SSE 5.8 mph - N/A   Clear
6:15 AM 69.8 °F - 66.2 °F 88% 30.00 in 7.0 mi SE 6.9 mph - N/A   Clear
6:35 AM 68.0 °F - 66.2 °F 94% 30.01 in 7.0 mi SSE 5.8 mph - N/A   Clear
6:55 AM 68.0 °F - 66.2 °F 94% 30.01 in 7.0 mi SSE 6.9 mph - N/A   Clear
7:15 AM 69.8 °F - 66.2 °F 88% 30.01 in 7.0 mi SSE 6.9 mph - N/A   Clear
7:35 AM 69.8 °F - 68.0 °F 94% 30.01 in 10.0 mi South 9.2 mph - N/A   Scattered Clouds
7:55 AM 69.8 °F - 68.0 °F 94% 30.02 in 10.0 mi South 8.1 mph - N/A   Overcast
8:15 AM 69.8 °F - 68.0 °F 94% 30.01 in 10.0 mi South 11.5 mph - N/A   Overcast
8:35 AM 71.6 °F - 68.0 °F 88% 30.02 in 10.0 mi SSW 12.7 mph 18.4 mph N/A   Overcast
8:55 AM 73.4 °F - 68.0 °F 83% 30.02 in 10.0 mi South 12.7 mph 17.3 mph N/A   Overcast
9:15 AM 73.4 °F - 66.2 °F 78% 30.03 in 10.0 mi SSW 12.7 mph 17.3 mph N/A   Overcast
9:35 AM 73.4 °F - 66.2 °F 78% 30.02 in 10.0 mi SSW 17.3 mph - N/A   Mostly Cloudy
9:55 AM 73.4 °F - 68.0 °F 83% 30.02 in 10.0 mi South 13.8 mph 19.6 mph N/A   Mostly Cloudy
10:15 AM 77.0 °F - 66.2 °F 69% 30.02 in 10.0 mi South 12.7 mph 19.6 mph N/A   Mostly Cloudy
10:35 AM 77.0 °F - 66.2 °F 69% 30.01 in 10.0 mi South 11.5 mph - N/A   Scattered Clouds
10:55 AM 78.8 °F - 68.0 °F 69% 30.02 in 10.0 mi South 11.5 mph - N/A   Scattered Clouds
11:15 AM 77.0 °F - 68.0 °F 74% 30.01 in 10.0 mi South 11.5 mph - N/A   Mostly Cloudy
11:35 AM 78.8 °F - 66.2 °F 65% 30.01 in 10.0 mi South 10.4 mph 18.4 mph N/A   Scattered Clouds
11:55 AM 78.8 °F - 66.2 °F 65% 30.01 in 10.0 mi South 16.1 mph - N/A   Mostly Cloudy
12:15 PM 78.8 °F - 64.4 °F 61% 30.00 in 10.0 mi South 13.8 mph - N/A   Mostly Cloudy
12:35 PM 80.6 °F 82.7 °F 66.2 °F 61% 29.99 in 10.0 mi SSW 10.4 mph 18.4 mph N/A   Scattered Clouds
12:55 PM 80.6 °F 82.3 °F 64.4 °F 58% 29.99 in 10.0 mi South 11.5 mph - N/A   Scattered Clouds
1:15 PM 80.6 °F 82.3 °F 64.4 °F 58% 29.99 in 10.0 mi South 11.5 mph - N/A   Scattered Clouds
1:35 PM 80.6 °F 82.7 °F 66.2 °F 61% 29.98 in 10.0 mi South 15.0 mph - N/A   Scattered Clouds
1:55 PM 82.4 °F 83.9 °F 64.4 °F 54% 29.97 in 10.0 mi South 15.0 mph 20.7 mph N/A   Clear
2:15 PM 82.4 °F 83.9 °F 64.4 °F 54% 29.96 in 10.0 mi South 13.8 mph 20.7 mph N/A   Clear
2:35 PM 82.4 °F 83.9 °F 64.4 °F 54% 29.95 in 10.0 mi South 11.5 mph - N/A   Scattered Clouds
2:55 PM 82.4 °F 83.9 °F 64.4 °F 54% 29.95 in 10.0 mi SSW 13.8 mph 18.4 mph N/A   Scattered Clouds
3:15 PM 84.2 °F 85.6 °F 64.4 °F 51% 29.94 in 10.0 mi SSW 11.5 mph - N/A   Scattered Clouds
3:35 PM 82.4 °F 83.9 °F 64.4 °F 54% 29.94 in 10.0 mi South 13.8 mph - N/A   Scattered Clouds
3:55 PM 82.4 °F 83.9 °F 64.4 °F 54% 29.94 in 10.0 mi South 12.7 mph - N/A   Scattered Clouds
4:15 PM 82.4 °F 83.9 °F 64.4 °F 54% 29.93 in 10.0 mi South 13.8 mph 17.3 mph N/A   Scattered Clouds
4:35 PM 82.4 °F 83.9 °F 64.4 °F 54% 29.93 in 10.0 mi South 12.7 mph - N/A   Scattered Clouds
4:55 PM 82.4 °F 83.9 °F 64.4 °F 54% 29.92 in 10.0 mi South 11.5 mph - N/A   Scattered Clouds
5:15 PM 82.4 °F 84.6 °F 66.2 °F 58% 29.92 in 10.0 mi South 11.5 mph 19.6 mph N/A   Scattered Clouds
5:35 PM 82.4 °F 83.9 °F 64.4 °F 54% 29.91 in 10.0 mi South 11.5 mph - N/A   Scattered Clouds
5:55 PM 82.4 °F 84.6 °F 66.2 °F 58% 29.89 in 10.0 mi South 11.5 mph - N/A   Clear
6:15 PM 82.4 °F 84.6 °F 66.2 °F 58% 29.89 in 10.0 mi South 12.7 mph - N/A   Scattered Clouds
6:35 PM 82.4 °F 83.9 °F 64.4 °F 54% 29.88 in 10.0 mi South 10.4 mph 16.1 mph N/A   Clear
6:55 PM 82.4 °F 83.9 °F 64.4 °F 54% 29.87 in 10.0 mi SSE 11.5 mph - N/A   Clear
7:15 PM 80.6 °F 82.3 °F 64.4 °F 58% 29.87 in 10.0 mi South 10.4 mph - N/A   Clear
7:35 PM 80.6 °F 82.3 °F 64.4 °F 58% 29.86 in 10.0 mi SSE 10.4 mph - N/A   Clear
7:55 PM 80.6 °F 82.3 °F 64.4 °F 58% 29.86 in 10.0 mi SSE 9.2 mph - N/A   Clear
8:15 PM 78.8 °F - 64.4 °F 61% 29.87 in 10.0 mi SE 6.9 mph - N/A   Clear
8:35 PM 77.0 °F - 64.4 °F 65% 29.88 in 10.0 mi SE 6.9 mph - N/A   Clear
8:55 PM 75.2 °F - 64.4 °F 69% 29.88 in 10.0 mi SE 6.9 mph - N/A   Clear
9:15 PM 75.2 °F - 64.4 °F 69% 29.88 in 10.0 mi SE 6.9 mph - N/A   Clear
9:35 PM 73.4 °F - 64.4 °F 73% 29.89 in 10.0 mi SE 8.1 mph - N/A   Clear
9:55 PM 73.4 °F - 64.4 °F 73% 29.89 in 10.0 mi SSE 6.9 mph - N/A   Clear
10:15 PM 73.4 °F - 64.4 °F 73% 29.90 in 10.0 mi SE 8.1 mph - N/A   Clear
10:35 PM 73.4 °F - 64.4 °F 73% 29.91 in 10.0 mi SSE 10.4 mph - N/A   Clear
10:55 PM 73.4 °F - 64.4 °F 73% 29.92 in 10.0 mi SSE 8.1 mph - N/A   Clear
11:15 PM 73.4 °F - 64.4 °F 73% 29.92 in 10.0 mi SSE 8.1 mph - N/A   Clear
11:35 PM 73.4 °F - 64.4 °F 73% 29.91 in 10.0 mi SSE 9.2 mph - N/A   Clear
11:55 PM 73.4 °F - 64.4 °F 73% 29.91 in 10.0 mi SSE 10.4 mph - N/A   Clear